Regional Weather Roundup
Issued by NWS Midland/Odessa, TX

Skip options and go directly to product.
Home | Oldest Version | Next Version | Current Version | All | Text Only | Save Text | Print | Product List | Glossary On

Skip product version selection by date and time.   
248
ASUS44 KMAF 241101
RWRMAF
MIDLAND AREA WEATHER ROUNDUP
NATIONAL WEATHER SERVICE MIDLAND TX
600 AM CDT FRI APR 24 2015

...IN SOUTHWEST TEXAS AND SOUTHEAST NEW MEXICO...

CITY           SKY/WX    TMP DP  RH WIND       PRES   REMARKS
ALPINE         CLOUDY    56  50  80 CALM      30.00S
ANDREWS        DRIZZLE   60  54  79 SW14G20   29.88R
ARTESIA        CLOUDY    63  45  51 SW17      29.82S
BIG SPRING     CLOUDY    64  54  71 SE10      29.88F
CARLSBAD       CLOUDY    58  45  62 S8        29.81S
DRYDEN           N/A     66  60  81 SW5       29.88R
FORT STOCKTON  CLOUDY    61  52  72 S8        29.88F
GUAD PASS      NOT AVBL
HOBBS          MOCLDY    57  50  77 S17G23    29.87S
MARFA          CLOUDY    52  50  93 CALM      29.98R
MIDLAND AIRPK  LGT RAIN  64  55  72 S10       29.87S
MIDLAND INTL   CLOUDY    62  55  77 S14       29.87R
ODESSA         CLOUDY    61  54  77 S7        29.87S
PECOS          CLOUDY    65  50  57 SE3       29.84F
PRESIDIO       FAIR      61  56  84 N3        29.89S
SEMINOLE       LGT RAIN  61  51  69 S16G23    29.88R
SNYDER         RAIN      62  57  84 SE13      29.84F
WINK           CLOUDY    60  53  77 SE10      29.84F
$$
...OTHER STATIONS IN TEXAS...

CITY           SKY/WX    TMP DP  RH WIND       PRES   REMARKS
ABILENE        CLOUDY    64  56  75 CALM      29.88F
AMARILLO       MOCLDY    52  48  86 SW9       29.76S
AUSTIN         TSTM      71  71 100 SE5       29.84F FOG
BROWNSVILLE    CLOUDY    77  76  96 SE20G26   29.78F FOG
CORPUS CHRISTI CLOUDY    75  72  90 S14       29.68F
DALLAS FTW     CLOUDY    67  66  97 E6        29.87R FOG
DEL RIO        PTCLDY    65  62  90 CALM      29.83S
EL PASO        LGT RAIN  58  43  57 W21G26    29.91R
HOUSTON INT    CLOUDY    72  71  97 CALM      29.89R
LUBBOCK        PTCLDY    63  47  55 SW18G32   29.80S
SAN ANGELO     CLOUDY    60  57  89 S6        29.86F
SAN ANTONIO    TSTM      71  68  90 VRB6      29.89R FOG
WACO           CLOUDY    72  71  97 S7        29.83F FOG
WICHITA FALLS  NOT AVBL
$$
...OTHER LOCATIONS IN NEW MEXICO...

CITY           SKY/WX    TMP DP  RH WIND       PRES   REMARKS
ALAMAGORDO     LGT RAIN  54  45  71 W15G23    29.92R
ALBUQUERQUE    CLOUDY    55  30  38 NW13      29.87F
CANNON AFB     CLOUDY    52  40  62 W8        29.80F
CLOVIS         CLOUDY    52  37  58 W10       29.80S
HOLLOMAN AFB   RAIN      53  46  76 W14       29.91R
ROSWELL        CLOUDY    50  42  74 SW5       29.81S
RUIDOSO        CLOUDY    43  39  87 W14G20    29.94S WCI  36
SANTA FE       CLOUDY    50  26  39 NW12      29.87F
TRUTH OR CONSE CLOUDY    54  34  46 NW13      29.89R
TUCUMCARI      CLOUDY    55  40  56 S3        29.75F
$$

USA.gov is the U.S. government's official web portal to all federal, state and local government web resources and services.